Weather History for Juliana Airport, St. Martin

Change the Weather History Date:

Sunday, December 11, 2011

  Actual Average Record
Temperature  
Mean Temperature 79 °F -  
Max Temperature 84 °F 82 °F 86 °F (1997)
Min Temperature 74 °F 73 °F 73 °F (1999)
Cooling Degree Days 14    
Growing Degree Days 29 (Base 50)    
Moisture  
Dew Point 72 °F    
Average Humidity 77    
Maximum Humidity 94    
Minimum Humidity 63    
Precipitation  
Precipitation 0.03 in 0.10 in - ()
Sea Level Pressure  
Sea Level Pressure 29.87 in    
Wind  
Wind Speed 4 mph ()    
Max Wind Speed 8 mph    
Max Gust Speed -    
Visibility 6.2 miles    
Events Rain    
Averages and records for this station are not official NWS values.
T = Trace of Precipitation, MM = Missing Value Source: Averaged Metar Reports

Daily Weather History Graph

Daily Weather History Graph

Search for Another Location

Airport:

Trip Planner

Search our weather history database for the weather conditions in past years. The results will help you decide how hot, cold, wet, or windy it might be!

Date:

Astronomy

Dec. 11, 2011 Rise Set
Actual Time 6:33 AM AST 5:37 PM AST
Civil Twilight 6:09 AM AST 6:01 PM AST
Nautical Twilight 5:42 AM AST 6:28 PM AST
Astronomical Twilight 5:15 AM AST 6:55 PM AST
Moon 6:42 PM AST (12/11) 7:17 AM AST (12/11)
Length of Visible Light 11h 51m
Length of Day
11h 04m
Full, 99% of the Moon is Illuminated
Dec 11
Full
Dec 17
Last Quarter
Dec 24
New
Jan 1
First Quarter
Jan 9
Full

Hourly Weather History & Observations

Time (AST) Temp. Heat Index Dew Point Humidity Pressure Visibility Wind Dir Wind Speed Gust Speed Precip Events Conditions
2:00 AM 75.2 °F - 73.4 °F 94% 29.86 in 6.2 mi ESE 4.6 mph - N/A Rain Light Rain
3:00 AM 77.0 °F - 73.4 °F 89% 29.83 in 6.2 mi ESE 6.9 mph - N/A   Mostly Cloudy
4:00 AM 77.0 °F - 71.6 °F 83% 29.83 in 6.2 mi ESE 4.6 mph - N/A   Partly Cloudy
5:00 AM 77.0 °F - 71.6 °F 83% 29.83 in 6.2 mi Variable 1.2 mph - N/A   Mostly Cloudy
6:00 AM 77.0 °F - 73.4 °F 89% 29.86 in 6.2 mi Variable 3.5 mph - N/A   Scattered Clouds
7:00 AM 75.2 °F - 71.6 °F 89% 29.86 in 6.2 mi Variable 3.5 mph - N/A Rain Light Rain Showers
8:00 AM 78 °F - 73 °F 79% 29.90 in 37 mi 3.5 mph - - Rain Light Rain Showers
8:00 AM 77.0 °F - 73.4 °F 89% 29.89 in 6.2 mi Variable 3.5 mph - N/A   Scattered Clouds
9:00 AM 78.8 °F - 73.4 °F 83% 29.89 in 6.2 mi ESE 4.6 mph - N/A   Mostly Cloudy
10:00 AM 80.6 °F 85.4 °F 73.4 °F 79% 29.92 in 6.2 mi ESE 5.8 mph - N/A   Mostly Cloudy
11:00 AM 82 °F - 72 °F 66% 29.92 in 37 mi SE 5.8 mph - -   Partly Cloudy
11:00 AM 82.4 °F 87.2 °F 71.6 °F 70% 29.92 in 6.2 mi ESE 5.8 mph - N/A   Scattered Clouds
12:00 PM 84.2 °F 89.6 °F 71.6 °F 66% 29.89 in 6.2 mi ESE 6.9 mph - N/A   Scattered Clouds
1:00 PM 78.8 °F - 69.8 °F 74% 29.86 in 6.2 mi NE 8.1 mph - N/A   Scattered Clouds
2:00 PM 81 °F - 72 °F 67% 29.86 in 34 mi NE 4.6 mph - - Rain Light Rain Showers
2:00 PM 82.4 °F 87.2 °F 71.6 °F 70% 29.86 in 6.2 mi Variable 3.5 mph - N/A   Mostly Cloudy
3:00 PM 82.4 °F 87.2 °F 71.6 °F 70% 29.83 in 6.2 mi East 8.1 mph - N/A   Mostly Cloudy
4:00 PM 80.6 °F 83.9 °F 69.8 °F 70% 29.83 in 6.2 mi East 6.9 mph - N/A   Mostly Cloudy
5:00 PM 80 °F - 70 °F 63% 29.86 in 37 mi East 6.9 mph - -   Mostly Cloudy
5:00 PM 80.6 °F 83.9 °F 69.8 °F 70% 29.83 in 6.2 mi East 5.8 mph - N/A   Mostly Cloudy
6:00 PM 78.8 °F - 69.8 °F 74% 29.86 in 6.2 mi East 4.6 mph - N/A   Scattered Clouds
8:00 PM 78 °F - 70 °F 71% 29.89 in 34 mi East 4.6 mph - -   Scattered Clouds
8:00 PM 77.0 °F - 69.8 °F 78% 29.89 in 6.2 mi East 4.6 mph - N/A   Partly Cloudy
10:00 PM 77.0 °F - 71.6 °F 83% 29.89 in 6.2 mi Variable 1.2 mph - N/A   Partly Cloudy
11:00 PM 77 °F - 72 °F 81% 29.91 in 34 mi 2.3 mph - -   Scattered Clouds